Volver al catálogo

GLOBAL-12

ActivoComunicacionesVLEO
NORAD 49772·PAYLOAD·🇺🇸 United States

Lanzado Dec 2, 2021 desde Cape Canaveral Space Force Station

Loading…

Próximos Pases (próximas 24 horas)

TLE

ActualizadoSource: Space-Track

Época: Sep 14, 2026, 22:05 UTC

1 49772U 21115BA  26257.92051468  .00040235  00000-0  51269-3 0  9996
2 49772  53.1948 331.3775 0002833   3.8486 356.2549 15.58944143269875

Sigue GLOBAL-12 en tiempo real con AllMySat

Download on the App Store